DECAYED
Showing default

ULTP, 45605 (Decayed)

Orbit data source: Space-Track

ULTP, 45605 was a payload satellite owned by Lynk (US) in LEO that was launched on Sat, 15 Feb 2020 UTC via an FALCON 9 launch vehicle from the Wallops Island (WLPIS). Payloads include a variety of satellites, spacecraft, and rockets equipped with specific instruments for various scientific and technological missions. These include communications satellites like Starlink; space stations such as the ISS; scientific satellites like the Hubble; Earth observation satellites from companies like Planet Labs, Umbra, and HawkEye 360; GPS; miniature CubeSats for education and research; and military/defense satellites.

Not visible in the next 10 days
ULTP details
Identifier
45605, 2020-011D
Orbit
Decayed
Last TLE update9 months ago
Origin
Flag of USLynk (US)
ManufacturerLynk
MissionDecayed Commercial Communications
Bus & MotorCUBESAT 6U, Unknown motor
Mass~8 kg wet, ~8 kg dry
Launch date (UTC)
2020-02-15 (5 years ago)
Launch vehicle
FALCON 9
Launch site
Wallops Island (WLPIS)
Object type
Payload
Rocket body
Debris
Shape & HBRBox, Unknown HBR
Radar Cross Section0.080 m², Medium (>0.1 m² and < 1m²)

Expand to show TLE details & history

TLE from 9 months ago
0 ULTP
1 45605U 20011D   24092.15627178  .12698457  12626-4  23983-3 0  9999
2 45605  51.6088  89.4431 0002221 304.0209  56.0609 16.47421305218431
Epoch: 2024-04-01T03:45Z
Definitive object data (Epoch: 2024-04-01T03:45:01.881Z)
Latitude-0.00007°
Longitude-156.81536°
Altitude146.095 km
Speed7.82 km/s
True Right ascension05h 57m 46s
True Declination0° 00' 00"
Sunlit
Object was in daylight at TLE epoch
Visualization observer readout
Observer readout values are unavailable because the object's trajectory could not be propagated. This is usually caused when the trajectory data is faulty or the object's orbit has decayed.
Visualization observer readout
Observer readout values are unavailable because the object's trajectory could not be propagated. This is usually caused when the trajectory data is faulty or the object's orbit has decayed.
Orbital elements
Apogee altitude148.118 km
Perigee altitude145.22 km
Semi-major axis6,524.806 km
Eccentricity0.0002221
Inclination51.6088°
RAAN89.4431°
Arg. of periapsis304.0209°
True anomaly56.08202°
Mean anomaly56.0609°
Eccentric anomaly56.07146°
Mean motion4.11805 °/min
BSTAR0.00023983
Orbital period87.42 mins
Loading maneuver chart data...
Loading historical data...
Loading historical data...
Loading historical data...
Loading historical data...
Loading historical data...
Loading historical data...
Loading historical data...

ULTP Visibility forecast

Observer location: undefined°, undefined

This satellite is decayed
Span
Click to sort rows by Start time (UTC) header in descending order
Start Az.
Max El. time (UTC)
Max El. Az.
Max El.
End time (UTC)
End Az.
|